Cortez, CO

7:20 PM MDT on September 25, 2017 (GMT -0600)
Cortez Municipal

Weather History for KCEZ - November, 2014

Change the Weather History Date:

Monday, November 3, 2014

  Actual Average Record
Temperature  
Mean Temperature 39 °F 42 °F  
Max Temperature 52 °F 58 °F 70 °F (2016)
Min Temperature 26 °F 26 °F 17 °F (2004)
Degree Days  
Heating Degree Days 26 23  
Month to date heating degree days 49 68  
Since 1 July heating degree days 513 750  
Cooling Degree Days 0 0  
Month to date cooling degree days 0 0  
Year to date cooling degree days 537 426  
Moisture  
Dew Point 27 °F    
Average Humidity 61    
Maximum Humidity 92    
Minimum Humidity 30    
Precipitation  
Precipitation 0.00 in 0.04 in 0.13 in (1996)
Month to date precipitation 0.03 0.14  
Year to date precipitation 7.80 11.56  
Sea Level Pressure  
Sea Level Pressure 30.07 in    
Wind  
Wind Speed 5 mph (ENE)    
Max Wind Speed 14 mph    
Max Gust Speed 17 mph    
Visibility 10 miles    
Events      
T = Trace of Precipitation, MM = Missing Value Source: NWS Daily Summary

Daily Weather History Graph

Daily Weather History Graph

Search for Another Location

Airport or City:

Trip Planner

Search our weather history database for the weather conditions in past years. The results will help you decide how hot, cold, wet, or windy it might be!

Date:

Astronomy

Nov. 03, 2014 Rise Set
Actual Time 6:41 AM MST 5:14 PM MST
Civil Twilight 6:14 AM MST 5:41 PM MST
Nautical Twilight 5:43 AM MST 6:12 PM MST
Astronomical Twilight 5:12 AM MST 6:42 PM MST
Moon 3:21 PM MST (11/3) 2:59 AM MST (11/3)
Length of Visible Light 11h 27m
Length of Day
10h 33m
Waxing Gibbous, 88% of the Moon is Illuminated
Nov 3
Waxing Gibbous
Nov 6
Full
Nov 14
Last Quarter
Nov 22
New
Nov 29
First Quarter

Hourly Weather History & Observations

Time (MST) Temp. Windchill Dew Point Humidity Pressure Visibility Wind Dir Wind Speed Gust Speed Precip Events Conditions
12:53 AM 37.9 °F 32.1 °F 30.9 °F 76% 29.90 in 10.0 mi SSW 8.1 mph - N/A   Mostly Cloudy
1:53 AM 37.0 °F 30.4 °F 30.0 °F 76% 29.92 in 10.0 mi SSW 9.2 mph - N/A   Clear
2:53 AM 37.9 °F 31.5 °F 28.9 °F 70% 29.93 in 10.0 mi South 9.2 mph - N/A   Overcast
3:53 AM 37.0 °F 32.4 °F 28.9 °F 73% 29.96 in 10.0 mi NW 5.8 mph - N/A   Overcast
4:53 AM 32.0 °F - 27.0 °F 82% 29.99 in 10.0 mi Calm Calm - N/A   Mostly Cloudy
5:53 AM 28.9 °F 21.9 °F 26.1 °F 89% 30.03 in 10.0 mi ENE 6.9 mph - N/A   Scattered Clouds
6:53 AM 32.0 °F - 28.0 °F 85% 30.06 in 10.0 mi Calm Calm - N/A   Overcast
7:53 AM 35.1 °F 31.0 °F 30.0 °F 82% 30.06 in 10.0 mi East 4.6 mph - N/A   Scattered Clouds
8:09 AM 37.0 °F 34.5 °F 30.9 °F 79% 30.12 in 10.0 mi East 3.5 mph - N/A   Mostly Cloudy
8:34 AM 37.9 °F 34.4 °F 30.9 °F 76% 30.13 in 10.0 mi East 4.6 mph - N/A   Scattered Clouds
8:53 AM 41.0 °F 37.1 °F 32.0 °F 70% 30.07 in 10.0 mi East 5.8 mph - N/A   Scattered Clouds
9:53 AM 44.1 °F 40.8 °F 30.9 °F 60% 30.06 in 10.0 mi East 5.8 mph - N/A   Clear
10:53 AM 48.0 °F - 28.9 °F 48% 30.06 in 10.0 mi ENE 5.8 mph - N/A   Mostly Cloudy
11:53 AM 46.9 °F - 27.0 °F 46% 30.05 in 10.0 mi WSW 3.5 mph - N/A   Mostly Cloudy
12:53 PM 48.9 °F - 25.0 °F 39% 30.03 in 10.0 mi Variable 4.6 mph - N/A   Mostly Cloudy
1:53 PM 51.1 °F - 21.0 °F 31% 30.03 in 10.0 mi Calm Calm - N/A   Scattered Clouds
2:53 PM 50.0 °F - 23.0 °F 35% 30.04 in 10.0 mi NNW 6.9 mph - N/A   Overcast
3:53 PM 50.0 °F - 21.9 °F 33% 30.05 in 10.0 mi WNW 9.2 mph - N/A   Clear
4:53 PM 46.9 °F - 23.0 °F 39% 30.09 in 10.0 mi NNW 8.1 mph - N/A   Clear
5:53 PM 43.0 °F 38.2 °F 24.1 °F 47% 30.14 in 10.0 mi NNW 8.1 mph - N/A   Scattered Clouds
6:53 PM 37.9 °F - 25.0 °F 60% 30.18 in 10.0 mi Calm Calm - N/A   Clear
7:53 PM 37.0 °F 34.5 °F 25.0 °F 62% 30.18 in 10.0 mi NNE 3.5 mph - N/A   Clear
8:53 PM 33.1 °F 27.7 °F 25.0 °F 72% 30.19 in 10.0 mi East 5.8 mph - N/A   Clear
9:53 PM 30.0 °F 24.1 °F 23.0 °F 75% 30.20 in 10.0 mi East 5.8 mph - N/A   Clear
10:53 PM 27.0 °F 21.6 °F 21.9 °F 81% 30.19 in 10.0 mi ENE 4.6 mph - N/A   Clear
11:53 PM 26.1 °F 18.4 °F 21.9 °F 84% 30.20 in 10.0 mi East 6.9 mph - N/A   Clear